This demonstration page uses our WeatherBlox Daily Observations layout. Learn more.

Left ArrowRight Arrow

44.8408, -93.29828

Hourly Observations for April 9, 2019

Temp ( °F °C ) Dew Point ( °F °C ) Humidity (%) Winds ( mph kmh ) Pressure ( in mb ) Visibility ( mi km ) Precip ( " mm )
12:53 am 00:53 Clear 49 9.4 35 1.7 59 59 NNW 14 22 29.93 1013 10 16 0.00 0.00
1:53 am 01:53 Clear 44 6.7 34 1.1 68 68 WNW 6 9 29.94 1014 10 16 0.00 0.00
2:53 am 02:53 Clear 45 7.2 35 1.7 68 68 SW 3 6 29.93 1013 10 16 0.00 0.00
3:53 am 03:53 Clear 44 6.7 35 1.7 71 71 SW 6 9 29.92 1013 10 16 0.00 0.00
4:53 am 04:53 Clear 42 5.6 34 1.1 73 73 WSW 3 6 29.92 1013 10 16 0.00 0.00
5:53 am 05:53 Clear 41 5 34 1.1 76 76 SW 6 9 29.92 1013 10 16 0.00 0.00
6:53 am 06:53 Partly Cloudy 41 5 34 1.1 76 76 WSW 5 7 29.92 1013 10 16 0.00 0.00
7:53 am 07:53 Partly Cloudy 44 6.7 34 1.1 68 68 W 12 19 29.92 1013 10 16 0.00 0.00
8:53 am 08:53 Mostly Cloudy 48 8.9 35 1.7 61 61 W 9 15 29.93 1013 10 16 0.00 0.00
9:53 am 09:53 Mostly Cloudy 51 10.6 37 2.8 59 59 WNW 12 19 29.92 1013 10 16 0.00 0.00
10:53 am 10:53 Mostly Cloudy 54 12.2 37 2.8 53 53 WNW 12 19 29.92 1013 10 16 0.00 0.00
11:53 am 11:53 Mostly Cloudy 53 11.7 34 1.1 48 48 NW 18 30 29.93 1014 10 16 0.00 0.00
12:53 pm 12:53 Mostly Cloudy 55 12.8 35 1.7 47 47 NW 15 24 29.93 1014 10 16 0.00 0.00
1:53 pm 13:53 Mostly Cloudy 56 13.3 33 0.6 42 42 NW 17 28 29.93 1013 10 16 0.00 0.00
2:53 pm 14:53 Mostly Cloudy 55 12.8 31 -0.6 40 40 NNW 17 28 29.92 1013 10 16 0.00 0.00
3:53 pm 15:53 Cloudy 54 12.2 29 -1.7 38 38 NNW 16 26 29.93 1014 10 16 0.00 0.00
4:46 pm 16:46 Cloudy 52 11.1 28 -2.2 40 40 NNE 17 28 29.94 1014 10 16 0.00 0.00
4:53 pm 16:53 Cloudy 50 10 27 -2.8 41 41 NNE 17 28 29.95 1014 10 16 0.00 0.00
5:53 pm 17:53 Cloudy 46 7.8 24 -4.4 42 42 NNE 17 28 29.96 1015 10 16 0.00 0.00
6:53 pm 18:53 Cloudy 44 6.7 21 -6.1 40 40 NNE 10 17 29.99 1016 10 16 0.00 0.00
7:53 pm 19:53 Mostly Cloudy 41 5 23 -5 49 49 NNE 16 26 30.02 1017 10 16 0.00 0.00
8:53 pm 20:53 Cloudy 39 3.9 20 -6.7 46 46 NE 15 24 30.05 1018 10 16 0.00 0.00
9:53 pm 21:53 Mostly Cloudy 37 2.8 19 -7.2 48 48 NE 10 17 30.07 1018 10 16 0.00 0.00
10:53 pm 22:53 Mostly Cloudy 35 1.7 19 -7.2 52 52 ENE 15 24 30.08 1019 10 16 0.00 0.00
11:53 pm 23:53 Mostly Cloudy 33 0.6 18 -7.8 54 54 ENE 14 22 30.09 1019 10 16 0.00 0.00

Powered by AerisWeather